Vorticity
nan nan nan nan nan nan nan nan nan nan nan nan nan nan nan nan nan nan nan nan nan nan nan nan nan nan nan nan nan nan nan nan nan nan nan nan nan nan nan nan nan nan nan
nan 14 11 9 9 8 7 9 9 10 10 10 8 7 8 8 9 9 8 9 8 7 7 8 8 9 13 10 8 8 7 9 12 11 7 7 9 8 8 7 7 7 nan
nan 10 12 10 8 8 9 9 9 9 9 9 11 9 8 9 8 8 9 9 8 8 9 9 8 8 8 9 10 9 9 10 11 9 8 9 9 10 7 7 7 6 nan
nan 8 8 9 7 9 12 9 9 9 9 9 10 11 9 9 9 10 10 8 10 9 10 9 10 10 8 9 9 9 9 10 9 9 9 10 9 8 7 8 6 7 nan
nan 9 9 11 12 10 11 11 9 9 10 9 9 10 11 10 12 10 10 10 9 8 8 8 10 11 9 10 12 11 8 7 8 8 8 9 9 9 9 7 8 7 nan
nan 12 13 14 12 10 10 9 8 9 10 10 10 9 5 9 14 9 9 9 9 9 7 9 10 10 9 8 10 13 16 13 7 7 9 10 10 8 10 9 9 7 nan
nan 15 15 12 11 13 12 10 9 9 9 10 9 9 8 12 13 9 5 7 9 9 10 9 8 10 12 10 9 9 7 9 15 14 10 12 12 11 10 10 9 10 nan
nan 16 17 14 12 12 12 12 11 10 9 9 9 8 9 15 15 11 5 5 10 11 10 9 10 10 9 11 9 8 8 10 13 16 17 15 15 15 9 10 11 9 nan
nan 16 14 13 14 11 11 11 10 10 10 10 10 10 10 14 16 9 4 5 9 9 10 10 10 12 12 7 6 8 7 8 13 16 15 13 11 9 11 10 10 7 nan
nan 15 12 12 13 12 11 10 10 11 9 8 13 13 11 13 16 7 1 7 9 9 9 11 10 11 10 4 5 7 7 9 9 7 6 6 5 7 8 10 11 8 nan
nan 15 13 12 11 11 10 10 11 10 9 10 12 13 13 13 15 9 2 5 9 9 9 9 13 14 8 4 4 7 11 10 6 6 6 6 7 7 7 10 10 11 nan
nan 15 14 11 11 12 11 10 10 10 9 10 10 10 11 13 15 12 5 6 7 7 9 9 17 16 8 6 5 10 12 6 6 8 8 8 9 8 9 9 8 8 nan
nan 10 13 13 13 12 10 9 9 10 9 10 10 9 9 10 15 16 8 9 4 5 13 16 16 12 8 9 11 8 3 6 9 9 8 9 10 10 10 9 9 9 nan
nan 10 10 9 9 9 9 10 10 9 9 10 10 10 10 10 10 10 12 13 9 8 13 13 12 11 10 10 12 9 6 10 9 9 9 10 10 10 9 9 9 9 nan
nan 10 9 10 9 8 10 12 10 11 11 10 10 12 11 11 14 11 7 7 11 13 9 9 11 11 10 9 9 9 9 10 9 10 10 10 9 10 10 9 9 8 nan
nan 11 11 10 10 10 9 9 12 15 14 11 11 8 8 17 22 12 7 8 11 4 3 10 9 10 9 9 9 9 10 9 9 10 10 10 11 10 10 9 9 9 nan
nan 10 11 12 12 11 10 10 10 14 15 11 10 11 10 15 15 12 9 11 9 -2 4 10 9 10 10 10 10 10 10 11 10 10 10 10 10 11 11 9 9 9 nan
nan 13 11 11 11 11 12 11 12 12 10 13 15 13 12 13 12 13 12 7 6 6 8 10 9 10 10 10 11 10 10 11 10 10 10 10 11 11 10 11 10 9 nan
nan 12 11 12 12 11 11 12 11 11 11 10 13 15 17 16 13 16 8 3 9 9 9 9 10 10 10 11 11 12 12 10 10 10 10 10 11 11 10 10 12 12 nan
nan 12 11 11 11 12 12 11 12 11 11 11 11 12 12 12 12 12 10 9 10 10 11 11 10 11 11 11 11 11 11 11 10 10 11 11 11 11 11 11 11 12 nan
nan 12 12 11 12 12 12 12 12 12 12 11 12 16 14 9 11 10 10 10 10 10 10 11 11 11 11 11 11 11 10 10 10 11 11 12 12 11 11 11 11 11 nan
nan 12 11 11 13 14 13 13 13 12 12 12 12 15 11 10 14 13 11 11 12 11 11 12 11 12 12 12 11 11 11 10 11 12 11 11 12 12 11 12 11 12 nan
nan 14 14 13 14 14 14 13 14 14 13 13 13 13 12 11 11 12 11 11 12 12 12 12 11 11 12 12 13 12 11 12 12 12 11 11 11 12 12 12 12 11 nan
nan 13 13 13 13 13 13 13 13 13 14 13 13 13 13 12 11 11 11 11 12 13 12 13 13 11 10 10 10 11 10 10 12 14 12 9 11 10 11 12 12 11 nan
nan 12 11 11 12 12 11 11 12 12 12 12 12 12 12 13 12 12 13 12 12 12 11 12 14 15 15 13 12 11 10 11 9 8 12 13 12 11 10 11 10 13 nan
nan nan nan nan nan nan nan nan nan nan nan nan nan nan nan nan nan nan nan nan nan nan nan nan nan nan nan nan nan nan nan nan nan nan nan nan nan nan nan nan nan nan nan
CAPE
27 3 2 0 0 0 0 0 0 0 0 0 0 0 0 0 0 0 0 0 0 0 0 0 0 0 0 0 0 0 0 0 0 0 0 0 0 0 3 11 11 13 11
0 0 0 1 0 0 0 0 0 0 0 0 0 0 0 0 0 0 0 0 0 0 0 0 0 0 0 0 0 0 0 0 0 0 0 0 0 0 2 5 0 0 0
0 0 0 1 0 0 0 0 0 0 0 0 0 0 0 0 0 0 0 0 0 0 0 0 0 0 0 0 0 0 0 0 0 0 0 0 0 0 0 0 1 1 0
0 0 0 0 0 0 0 0 0 0 0 0 0 0 0 0 0 0 0 0 0 0 0 0 0 0 0 0 0 0 0 0 0 0 0 0 0 0 0 0 0 0 0
0 0 0 0 1 1 0 0 0 0 0 0 0 0 0 0 0 0 0 0 0 0 0 0 0 0 0 0 0 0 0 0 0 0 0 0 0 0 0 0 0 0 0
0 0 1 1 3 1 0 0 0 0 0 0 0 0 0 0 0 0 0 0 0 0 0 0 0 0 0 0 0 0 0 0 0 0 0 0 0 0 0 0 0 0 0
0 2 4 2 1 0 0 0 0 0 0 0 0 0 1 0 0 0 0 0 0 0 0 0 0 0 0 0 0 0 0 0 0 0 0 0 0 0 0 0 0 0 0
1 3 4 2 0 0 0 0 0 0 0 0 0 0 4 6 1 1 0 0 1 0 0 2 1 0 0 0 0 0 0 0 0 0 0 0 0 0 0 0 0 0 0
1 3 1 0 0 0 0 0 0 0 1 1 1 5 6 3 3 0 0 0 0 0 0 0 0 0 0 0 0 0 0 0 0 0 0 0 0 0 0 0 0 0 0
2 3 0 0 0 0 1 3 1 0 0 0 0 11 1 0 3 0 0 0 0 0 0 0 0 0 0 0 0 0 0 1 1 0 1 0 0 0 0 0 2 1 0
0 0 0 0 0 0 0 1 2 2 0 0 9 3 0 0 2 0 0 0 0 0 0 0 0 0 0 0 0 0 0 1 2 3 5 10 9 1 0 0 0 0 0
0 0 0 0 0 0 0 3 1 1 0 2 9 4 4 3 0 3 0 0 0 0 0 0 0 0 0 1 0 0 0 0 1 3 4 7 10 11 4 1 0 0 0
0 0 1 0 0 0 1 2 2 1 0 2 5 5 3 1 5 2 1 0 0 0 0 1 0 0 0 2 1 0 0 1 4 5 4 6 7 5 4 0 0 0 0
1 2 1 0 1 0 1 1 1 1 2 5 9 7 7 9 14 4 5 6 1 0 0 3 2 3 1 7 8 8 11 9 3 1 1 3 5 5 4 0 1 1 3
0 0 0 0 1 4 1 1 0 0 0 7 5 10 6 10 9 5 7 10 11 5 4 6 7 9 10 7 6 8 8 6 2 3 2 2 2 4 7 4 0 1 3
1 1 0 0 1 2 2 1 0 0 0 0 0 2 6 0 0 1 2 3 2 0 1 2 2 4 5 5 5 3 4 0 0 0 0 0 0 4 9 12 7 6 6
0 0 0 0 0 1 1 1 1 2 0 0 0 0 0 0 0 2 2 4 2 1 0 3 5 8 6 5 5 5 3 2 0 0 0 0 2 5 10 11 16 11 9
2 0 0 0 0 0 0 1 1 3 4 4 0 1 1 2 2 5 4 5 10 6 7 2 1 2 4 3 4 4 4 3 2 0 0 0 1 3 7 7 13 13 13
0 1 0 0 0 0 0 0 1 4 5 7 9 1 1 1 0 1 3 9 10 9 5 5 4 3 3 3 3 4 4 4 3 2 2 2 4 3 5 6 8 4 7
1 0 0 0 0 1 0 0 1 1 2 5 7 7 10 3 8 12 13 11 11 6 7 1 1 1 1 2 2 3 4 4 3 2 2 4 5 5 5 5 7 11 12
2 1 0 5 5 4 0 1 2 2 3 7 8 6 0 4 6 7 9 10 11 7 9 3 2 1 1 1 0 1 1 1 1 3 3 3 7 6 5 6 8 5 6
2 2 3 5 7 4 6 5 4 4 5 4 3 2 0 7 4 3 5 9 10 5 4 4 3 2 1 0 0 2 3 4 6 6 7 5 5 6 6 6 17 20 11
0 2 3 6 6 1 8 9 7 6 4 5 3 2 4 6 5 6 5 7 7 7 6 6 10 5 7 10 9 6 6 6 6 8 8 9 9 11 12 13 11 17 19
5 5 4 5 6 5 6 8 6 2 3 7 8 7 3 4 5 4 5 10 15 12 9 7 9 9 11 11 11 9 6 10 8 6 7 9 9 10 12 13 12 10 13
2 3 4 4 5 5 4 4 4 5 4 4 4 5 5 4 4 5 3 4 3 7 7 12 13 8 9 4 4 5 4 3 6 4 6 8 7 7 9 12 10 11 15
1 2 4 4 7 5 5 4 4 6 6 5 6 5 4 4 3 4 4 3 4 4 4 4 3 1 2 4 4 2 4 4 5 4 9 9 12 10 11 11 7 10 12